User: anonymous   Login
Location: Caltech
(34.1382°N, 118.1253°W)
Time: 06:48:28
(UTC-08:00)
Language:

Cosmos 1606 - Orbit

View from above orbital plane
View from above orbital plane
View from above satellite
View from above satellite

Ground track
Ground track

The orbit data is extracted from the following two-line orbital elements,

1 15369U 84111A   17347.35842832  .00000866  00000-0  43464-4 0  9991
2 15369  82.5275 306.2793 0017878   2.6072 357.5250 15.15855719807608
Epoch (UTC): 13 December 2017 08:36:08
Eccentricity: 0.0017878
inclination: 82.5275°
perigee height: 506 km
apogee height: 531 km
right ascension of ascending node: 306.2793°
argument of perigee: 2.6072°
revolutions per day: 15.15855719
mean anomaly at epoch: 357.5250°
orbit number at epoch: 80760

The dashed part of the orbit path shows where the satellite is in the earth's shadow,  

DLR